Regional Weather Roundup
Issued by NWS

Home | Current Version | Previous Version | Graphics & Text | Print | Product List | Glossary On
Versions: 1 2 3 4 5 6 7 8 9 10 11 12 13 14 15 16 17 18 19 20 21 22 23 24 25 26 27 28 29 30 31 32 33 34 35 36 37 38 39 40 41 42 43 44 45 46 47 48 49 50
000
ASUS43 KLOT 020206
RWRIL

ILLINOIS REGIONAL WEATHER ROUNDUP
NATIONAL WEATHER SERVICE CHICAGO/ROMEOVILLE IL
900 PM CDT TUE SEP 01 2015

NOTE: "FAIR" INDICATES FEW OR NO CLOUDS BELOW 12,000 FEET WITH NO
SIGNIFICANT WEATHER AND/OR OBSTRUCTIONS TO VISIBILITY.

* THESE STATIONS ARE NOT UNDER NWS QUALITY CONTROL. THEY ALSO MAY NOT
  REPORT WEATHER SUCH AS PRECIPITATION OR FOG.

ILZ001-002-007-009-015-016-024-020300-
NORTHWEST ILLINOIS

CITY           SKY/WX    TMP DP  RH WIND       PRES   REMARKS
MOLINE         CLEAR     80  70  71 S6        30.00R HX  83
STERLING*      CLEAR     77  72  83 CALM      29.99R
$$

ILZ003-004-008-010-011-017-018-020300-
NORTH CENTRAL ILLINOIS

CITY           SKY/WX    TMP DP  RH WIND       PRES   REMARKS
ROCKFORD       PTCLDY    76  70  82 S7        30.02R
$$

ILZ005-006-012>014-019>023-020300-
NORTHEAST ILLINOIS

CITY           SKY/WX    TMP DP  RH WIND       PRES   REMARKS
CHICAGO-OHARE  PTCLDY    80  72  76 S7        30.01R HX  84
CHICAGO-MIDWAY CLEAR     84  72  67 S9        30.02R HX  89
AURORA         CLEAR     78  74  87 S6        30.03R HX  81
WAUKEGAN       CLEAR     77  72  84 SW6       30.00R
DUPAGE AIRPORT CLEAR     78  72  81 S7        30.02R HX  80
WHEELING       CLEAR     83  71  67 S8        30.02R HX  87
NORTHERLY ISL    N/A     82  70  66 S8          N/A  HX  86
$$

LMZ740>746-020300-
SOUTHERN LAKE MICHIGAN

STATION/POSITION SKY/WX   TEMP    WIND        PRES    VSBY  WAVE
                          AIR SEA DIR/SP/G                  HT/PER
                          (F)     (DEG/KT/KT) (MB)    (MI)  (FT/S)
SOUTHERN BUOY              73 70  180/ 10/ 12 1015.5R         1/ 4
WILMETTE HARBOR            73 60   10/  6/  8   N/A           1
HARRISON CRIB              82     200/ 13/ 14   N/A
BURNHAM HARBOR             81     190/ 14       N/A
CALUMET HARBOR             83     170/  8/ 11   N/A
BURNS HARBOR               80     190/ 11/ 15 1017.3R
MICHIGAN CITY              80     170/ 11/ 13   N/A
MICHIGAN CITY 6N           78 73  210/  8/ 10   N/A           1
ST. JOSEPH                 77 73  220/  6/  6   N/A           1
$$

ILZ025>027-034>036-040-047-049-050-058-095>099-020300-
WEST-CENTRAL ILLINOIS

CITY           SKY/WX    TMP DP  RH WIND       PRES   REMARKS
QUINCY         CLEAR     80  69  69 S7        30.04R HX  83
$$

ILZ028>032-037-038-041>044-048-051>054-059>061-020300-
CENTRAL ILLINOIS

CITY           SKY/WX    TMP DP  RH WIND       PRES   REMARKS
DECATUR        CLOUDY    80  70  71 S5        30.07S HX  83
PEORIA         CLEAR     81  68  64 SW3       30.04R HX  84
SPRINGFIELD    PTCLDY    78  69  73 S6        30.06R HX  80
TAYLORVILLE    NOT AVBL
$$

ILZ033-039-045-046-055>057-062-063-020300-
EAST-CENTRAL ILLINOIS

CITY           SKY/WX    TMP DP  RH WIND       PRES   REMARKS
CHAMPAIGN      MOCLDY    72  72 100 S3        30.09F
MATTOON        HAZE      75  67  76 S5        30.09R VSB 3/4
$$

ILZ079-100>102-020300-
SOUTHWEST ILLINOIS

CITY           SKY/WX    TMP DP  RH WIND       PRES   REMARKS
BELLEVILLE     CLEAR     77  73  87 VRB2      30.07R
CAHOKIA*       CLEAR     80  70  71 S3        30.07R HX  83
$$

ILZ064>066-069>071-074>076-080>082-084>086-088>090-092>094-020300-
SOUTH-CENTRAL ILLINOIS

CITY           SKY/WX    TMP DP  RH WIND       PRES   REMARKS
CARBONDALE     CLEAR     74  71  91 CALM      30.09R
MT. VERNON     CLEAR     73  66  78 CALM      30.10R
$$

ILZ067-068-072-073-078-083-087-091-020300-
SOUTHEAST ILLINOIS

CITY           SKY/WX    TMP DP  RH WIND       PRES   REMARKS
LAWRENCEVILLE  PTCLDY    75  71  87 CALM      30.10R
ROBINSON*      FAIR      71  70  94 CALM      30.11R
$$

ABBREVIATIONS USED IN REMARKS
   TC - TEMPERATURE IN CELSIUS
  WCI - WIND CHILL INDEX
   HX - HEAT INDEX
  VSB - VISIBILITY
$$




USA.gov is the U.S. government's official web portal to all federal, state and local government web resources and services.